Regional Weather Roundup
Issued by NWS

Home | Current Version | Previous Version | Graphics & Text | Print | Product List | Glossary On
Versions: 1 2 3 4 5 6 7 8 9 10 11 12 13 14 15 16 17 18 19 20 21 22 23 24 25 26 27 28 29 30 31 32 33 34 35 36 37 38 39 40 41 42 43 44 45 46 47 48 49 50
000
ASUS43 KLOT 012110
RWRIL

ILLINOIS REGIONAL WEATHER ROUNDUP
NATIONAL WEATHER SERVICE CHICAGO/ROMEOVILLE IL
400 PM CDT FRI AUG 01 2014

NOTE: "FAIR" INDICATES FEW OR NO CLOUDS BELOW 12,000 FEET WITH NO
SIGNIFICANT WEATHER AND/OR OBSTRUCTIONS TO VISIBILITY.

* THESE STATIONS ARE NOT UNDER NWS QUALITY CONTROL. THEY ALSO MAY NOT
  REPORT WEATHER SUCH AS PRECIPITATION OR FOG.

ILZ001-002-007-009-015-016-024-012200-
NORTHWEST ILLINOIS

CITY           SKY/WX    TMP DP  RH WIND       PRES   REMARKS
MOLINE         PTSUNNY   81  61  50 SE3       30.05F HX  82
STERLING*      MOSUNNY   82  61  47 E5        30.05F HX  83
SAVANNA*       SUNNY     84  53  34 W3        30.05F HX  82
$$

ILZ003-004-008-010-011-017-018-012200-
NORTH CENTRAL ILLINOIS

CITY           SKY/WX    TMP DP  RH WIND       PRES   REMARKS
ROCKFORD       MOSUNNY   81  58  45 W6        30.06F HX  81
FREEPORT*      SUNNY     80  60  50 W5        30.08F HX  81
ROCHELLE*      PTSUNNY   82  57  42 CALM      30.06F HX  82
DE KALB*       PTSUNNY   77  58  51 CALM      30.07S
PERU*          MOSUNNY   80  60  49 CALM      30.06F HX  81
$$

ILZ005-006-012>014-019>023-012200-
NORTHEAST ILLINOIS

CITY           SKY/WX    TMP DP  RH WIND       PRES   REMARKS
CHICAGO-OHARE  PTSUNNY   78  57  48 SE7       30.07S
CHICAGO-MIDWAY CLOUDY    74  66  76 N6        30.07S
AURORA         MOSUNNY   81  59  47 W5        30.06F HX  81
LANSING*       MOSUNNY   71  59  65 SE13      30.09S
JOLIET*        PTSUNNY   80  58  46 CALM      30.06F HX  81
WAUKEGAN       MOSUNNY   77  59  53 SE10      30.06S
DUPAGE AIRPORT MOSUNNY   83  59  44 W5        30.06S HX  83
KANKAKEE*      CLOUDY    78  63  59 S9        30.07F
WHEELING       PTSUNNY   79  62  56 SE8       30.08S HX  80
MORRIS*        SUNNY     82  60  48 W3        30.06S HX  82
ROMEOVILLE*    SUNNY     80  58  46 W5        30.06F HX  81
NORTHERLY ISL    N/A     70  61  73 SE14        N/A
$$

LMZ740>746-012200-
SOUTHERN LAKE MICHIGAN

STATION/POSITION SKY/WX   TEMP    WIND        PRES    VSBY  WAVE
                          AIR SEA DIR/SP/G                  HT/PER
                          (F)     (DEG/KT/KT) (MB)    (MI)  (FT/S)
SOUTHERN BUOY              67 66  160/  8/  8 1018.4R         0
WAUKEGAN HARBOR            72     140/ 10/ 11   N/A
HARRISON CRIB              71     140/ 12/ 16   N/A
BURNHAM HARBOR             70     140/  7/ 14   N/A
CALUMET HARBOR             74     110/ 11/ 15 1017.2F
BURNS HARBOR               72     150/  9/ 14   N/A
MICHIGAN CITY              69     130/ 12/ 16   N/A
MICHIGAN CITY 6N           69 70  170/ 12/ 14   N/A           1/ 2
ST. JOSEPH                 72 70  160/  8/ 12   N/A           0
$$

ILZ025>027-034>036-040-047-049-050-058-095>099-012200-
WEST-CENTRAL ILLINOIS

CITY           SKY/WX    TMP DP  RH WIND       PRES   REMARKS
QUINCY         LGT RAIN  77  65  66 N3        30.06F
GALESBURG*     SUNNY     87  61  42 W5        30.06F HX  87
MACOMB*        SUNNY     81  62  52 NW3       30.08S HX  82
JACKSONVILLE*  PTSUNNY   74  67  80 E13       30.09S
PITTSFIELD*    PTSUNNY   77  67  72 E5        30.08F
$$

ILZ028>032-037-038-041>044-048-051>054-059>061-012200-
CENTRAL ILLINOIS

CITY           SKY/WX    TMP DP  RH WIND       PRES   REMARKS
PONTIAC        PTSUNNY   75  61  60 E5        30.06F
DECATUR        CLOUDY    70  65  84 W5        30.09S
PEORIA         LGT RAIN  71  62  73 SE12      30.07R
LACON*         LGT RAIN  76  62  61 E5        30.05S
LINCOLN*       CLOUDY    74  64  69 SW3       30.06S
SPRINGFIELD    CLOUDY    68  63  84 S7        30.08F
TAYLORVILLE    TSTM      63  61  94 S7        30.12F
$$

ILZ033-039-045-046-055>057-062-063-012200-
EAST-CENTRAL ILLINOIS

CITY           SKY/WX    TMP DP  RH WIND       PRES   REMARKS
CHAMPAIGN      CLOUDY    73  63  70 W7        30.07F
DANVILLE*      RAIN      72  61  68 N9        30.06R
RANTOUL*       PTSUNNY   75  57  53 W6        30.09R
PARIS*         PTSUNNY   79  65  62 CALM      30.08S HX  81
$$

ILZ079-100>102-012200-
SOUTHWEST ILLINOIS

CITY           SKY/WX    TMP DP  RH WIND       PRES   REMARKS
ALTON          PTSUNNY   75  70  83 VRB5      30.06S
BELLEVILLE     PTSUNNY   83  62  49 W2        30.03S HX  84
CAHOKIA*       LGT RAIN  82  60  47 NW13      30.05R HX  82
SPARTA*        SUNNY     82  63  51 SE6       30.05S HX  83
$$

ILZ064>066-069>071-074>076-080>082-084>086-088>090-092>094-012200-
SOUTH-CENTRAL ILLINOIS

CITY           SKY/WX    TMP DP  RH WIND       PRES   REMARKS
CARBONDALE     SUNNY     84  60  44 CALM      30.04F HX  84
CAIRO*         SUNNY     86  63  46 SW3       30.04S HX  87
EFFINGHAM*     MOSUNNY   83  56  38 SE7       30.05S HX  83
MARION         PTSUNNY   88  61  40 NE5       30.05F HX  88
MT. VERNON     MOSUNNY   86  64  48 S6        30.05F HX  87
CENTRALIA*     MOSUNNY   91  55  29 S7        30.04F HX  88
SALEM*         MOSUNNY   85  63  47 S3        30.05S HX  85
METROPOLIS*    MOSUNNY   86  57  36 CALM      30.03S HX  85
$$

ILZ067-068-072-073-078-083-087-091-012200-
SOUTHEAST ILLINOIS

CITY           SKY/WX    TMP DP  RH WIND       PRES   REMARKS
LAWRENCEVILLE  MOSUNNY   83  62  49 SE6       30.05F HX  84
FLORA*         SUNNY     82  61  47 S5        30.04F HX  83
FAIRFIELD*     SUNNY     84  66  54 S5        30.04F HX  86
HARRISBURG*    SUNNY     83  63  49 NE3       30.06S HX  84
ROBINSON*      SUNNY     86  62  44 CALM      30.06S HX  86
CARMI*         SUNNY     82  63  51 CALM      30.04F HX  83
$$

ABBREVIATIONS USED IN REMARKS
   TC - TEMPERATURE IN CELSIUS
  WCI - WIND CHILL INDEX
   HX - HEAT INDEX
  VSB - VISIBILITY
$$




USA.gov is the U.S. government's official web portal to all federal, state and local government web resources and services.